カタログに戻る

STARLINK-37275

運用中通信VLEO
NORAD 68725·PAYLOAD·🇺🇸 United States

打ち上げ Apr 14, 2026 から Cape Canaveral Space Force Station

Loading…

次のパス (今後24時間)

TLE

最新Source: CelesTrak SupGP

元期: Sep 15, 2026, 04:35 UTC

1 68725C 26081AC  26258.19145833 -.00060572  00000+0 -17898-2 0  2586
2 68725  53.1575 230.2679 0001419  91.0294  44.2619 15.34416453    18

AllMySatでSTARLINK-37275をリアルタイム追跡

Download on the App Store